| time (UTC) | temp F | wind direction | speed MPH | gust MPH | rain 1hr in | rain 24hr in | rain mn in | humidity % | barometer mb |
| 20260502210104 | 52 | 222 | 0.0 | 3.0 | 0.00 | 0.00 | 0.00 | 44 | 1018.2 |
| 20260502204548 | 51 | 283 | 0.0 | 7.0 | 0.00 | 0.00 | 0.00 | 43 | 1018.2 |
| 20260502203044 | 51 | 271 | 0.0 | 3.0 | 0.00 | 0.00 | 0.00 | 46 | 1018.4 |
| 20260502201547 | 51 | 266 | 1.0 | 9.0 | 0.00 | 0.00 | 0.00 | 43 | 1018.5 |
| 20260502200054 | 51 | 276 | 1.0 | 8.0 | 0.00 | 0.00 | 0.00 | 44 | 1018.7 |
| 20260502194542 | 50 | 277 | 1.0 | 4.0 | 0.00 | 0.00 | 0.00 | 44 | 1018.9 |
| 20260502193043 | 52 | 345 | 0.0 | 8.0 | 0.00 | 0.00 | 0.00 | 47 | 1019.0 |
| 20260502191544 | 51 | 261 | 2.0 | 8.0 | 0.00 | 0.00 | 0.00 | 46 | 1019.1 |
| 20260502190046 | 50 | 257 | 0.0 | 7.0 | 0.00 | 0.00 | 0.00 | 47 | 1019.2 |
| 20260502184539 | 50 | 293 | 0.0 | 12.0 | 0.00 | 0.00 | 0.00 | 46 | 1019.4 |
| 20260502183037 | 50 | 288 | 1.0 | 6.0 | 0.00 | 0.00 | 0.00 | 45 | 1019.4 |
| 20260502181538 | 51 | 267 | 0.0 | 7.0 | 0.00 | 0.00 | 0.00 | 49 | 1019.5 |
| 20260502163027 | 47 | 276 | 1.0 | 7.0 | 0.00 | 0.00 | 0.00 | 53 | 1020.3 |
| 20260502161525 | 48 | 286 | 0.0 | 7.0 | 0.00 | 0.00 | 0.00 | 55 | 1020.4 |
| 20260502151548 | 48 | 269 | 0.0 | 7.0 | 0.00 | 0.00 | 0.00 | 57 | 1020.5 |
| 20260502123058 | 38 | 283 | 0.0 | 1.0 | 0.00 | 0.00 | 0.00 | 73 | 1019.9 |
| 20260502121557 | 37 | 242 | 0.0 | 1.0 | 0.00 | 0.00 | 0.00 | 75 | 1019.9 |
| 20260502114553 | 35 | 236 | 0.0 | 0.0 | 0.00 | 0.00 | 0.00 | 82 | 1019.3 |
| 20260502113055 | 34 | 336 | 0.0 | 0.0 | 0.00 | 0.00 | 0.00 | 86 | 1019.3 |
| 20260502111553 | 32 | 335 | 0.0 | 0.0 | 0.00 | 0.00 | 0.00 | 88 | 1019.4 |
| 20260502110059 | 31 | 335 | 0.0 | 0.0 | 0.00 | 0.00 | 0.00 | 87 | 1019.4 |
| 20260502104548 | 31 | 335 | 0.0 | 0.0 | 0.00 | 0.00 | 0.00 | 86 | 1019.3 |
| 20260502103046 | 31 | 335 | 0.0 | 0.0 | 0.00 | 0.00 | 0.00 | 86 | 1019.1 |
| 20260502101556 | 32 | 335 | 0.0 | 0.0 | 0.00 | 0.00 | 0.00 | 85 | 1019.1 |
| 20260502091533 | 35 | 335 | 0.0 | 0.0 | 0.00 | 0.04 | 0.00 | 80 | 1019.0 |
| 20260502071514 | 39 | 300 | 0.0 | 0.0 | 0.00 | 0.10 | 0.00 | 78 | 1018.6 |
| 20260502070030 | 39 | 273 | 0.0 | 0.0 | 0.00 | 0.10 | 0.00 | 79 | 1018.8 |
| 20260502064511 | 39 | 273 | 0.0 | 0.0 | 0.00 | 0.12 | 0.00 | 79 | 1018.7 |
| 20260502063025 | 39 | 273 | 0.0 | 0.0 | 0.00 | 0.12 | 0.00 | 77 | 1018.8 |
| 20260502061506 | 40 | 272 | 0.0 | 0.0 | 0.00 | 0.12 | 0.00 | 76 | 1019.1 |
| 20260502060004 | 41 | 28 | 0.0 | 0.0 | 0.00 | 0.12 | 0.00 | 75 | 1019.0 |
| 20260502054508 | 41 | 13 | 0.0 | 1.0 | 0.00 | 0.13 | 0.00 | 75 | 1019.0 |
| 20260502053002 | 41 | 355 | 0.0 | 0.0 | 0.00 | 0.13 | 0.00 | 74 | 1019.0 |
| 20260502051601 | 41 | 355 | 0.0 | 0.0 | 0.00 | 0.13 | 0.00 | 73 | 1019.1 |
| 20260502050058 | 41 | 355 | 0.0 | 0.0 | 0.00 | 0.13 | 0.00 | 72 | 1018.9 |
| 20260502044559 | 42 | 342 | 0.0 | 1.0 | 0.00 | 0.14 | 0.00 | 72 | 1018.9 |
| 20260502043054 | 42 | 22 | 0.0 | 1.0 | 0.00 | 0.14 | 0.00 | 71 | 1019.0 |
| 20260502041559 | 42 | 18 | 0.0 | 2.0 | 0.00 | 0.14 | 0.00 | 70 | 1019.1 |
| 20260502040050 | 43 | 33 | 0.0 | 0.0 | 0.00 | 0.14 | 0.00 | 69 | 1019.1 |
| 20260502034549 | 43 | 11 | 0.0 | 2.0 | 0.00 | 0.14 | 0.14 | 68 | 1019.2 |
| 20260502033050 | 43 | 53 | 0.0 | 4.0 | 0.00 | 0.14 | 0.14 | 67 | 1019.0 |
| 20260502031555 | 43 | 335 | 0.0 | 2.0 | 0.00 | 0.14 | 0.14 | 67 | 1018.9 |
| 20260502030047 | 44 | 40 | 0.0 | 3.0 | 0.00 | 0.14 | 0.14 | 68 | 1018.8 |
| 20260502024553 | 43 | 85 | 0.0 | 0.0 | 0.00 | 0.14 | 0.14 | 71 | 1018.6 |
| 20260502023102 | 43 | 20 | 0.0 | 0.0 | 0.00 | 0.14 | 0.14 | 71 | 1018.5 |
| 20260502021540 | 44 | 261 | 0.0 | 0.0 | 0.00 | 0.14 | 0.14 | 72 | 1018.1 |
| 20260502020038 | 43 | 143 | 0.0 | 0.0 | 0.00 | 0.14 | 0.14 | 72 | 1018.0 |
| 20260502014537 | 43 | 160 | 0.0 | 0.0 | 0.00 | 0.14 | 0.14 | 72 | 1017.7 |
| 20260502013034 | 43 | 159 | 0.0 | 0.0 | 0.00 | 0.14 | 0.14 | 71 | 1017.4 |
| 20260502011532 | 44 | 186 | 0.0 | 0.0 | 0.00 | 0.14 | 0.14 | 69 | 1017.2 |
| 20260502010034 | 45 | 47 | 0.0 | 0.0 | 0.00 | 0.14 | 0.14 | 67 | 1016.9 |
| 20260502004530 | 46 | 13 | 0.0 | 2.0 | 0.00 | 0.14 | 0.14 | 64 | 1016.7 |
| 20260502003026 | 46 | 338 | 0.0 | 0.0 | 0.00 | 0.14 | 0.14 | 64 | 1016.6 |
| 20260502001525 | 47 | 143 | 0.0 | 0.0 | 0.00 | 0.14 | 0.14 | 62 | 1016.5 |
| 20260502000039 | 48 | 274 | 0.0 | 1.0 | 0.00 | 0.14 | 0.14 | 62 | 1016.6 |
| 20260501211654 | 48 | 307 | 2.0 | 7.0 | 0.00 | 0.14 | 0.14 | 70 | 1016.4 |